Погода Николаевск-
на-Амуре

Погода Николаевск-
на-Амуре : погода сейчас, прогноз погоды и архив. Всё, что Вы хотите узнать о погоде Николаевск-
на-Амуре!

Хотите узнать прогноз погоды Николаевск-
на-Амуре? Тогда Вам сюда: Погода Николаевск-
на-Амуре

Поиск расширенной информации на нашем сайте:

Другие новости

Новости СМИ2

Главная страница сайта

Новости сайта

02.10.2013

Напоминаем, что на нашем новом сайте вы можете получить высокодетализированные прогнозы погоды по пунктам России, СНГ и мира (включающие важные для авиации метеовеличины, такие как направление и скорость ветра, видимость, явления погоды, количество и форма облачности, нижняя и верхняя граница облачности), а также ознакомиться с разнообразными материалами по авиационной метеорологии и подборкой полезных ссылок на эту тему.

Сайт Метеоцентр.Азия посвящён разработке технологий оптимизации авиаметеорологического обслуживания, включая проектирование и перспективное создание нескольких автоматизированных авиаметеорологических систем:
- система выпуска высокодетальных прогностических карт явлений погоды для нижнего воздушного пространства по России и ближнему зарубежью;
- система верификации прогнозов TAF (выпускаемых синоптиками официальных АМСГ РФ и ближнего зарубежья) и AUTOTAF (выпускаемых сайтом Метеоцентр.Азия) - выявление ошибок, онлайн-сопоставление с фактической погодой METAR, автоматическое внесение коррективов в прогнозы при резком отклонении фактической погоды от прогноза, подсчёт оправдываемости прогнозов по элементам и в целом;
- система обработки, анализа и отображения авиаметеорологической информации для применения провайдерами метеорологической информации.


Погода Николаевск-
на-Амуре - сегодня

Время (UTC), дата Ветер
(°,м/с) 
Видим.   Явления Облачность Т
(°С)
Тd
(°С)
f(%) Тe
(°С)
Pmin
(гПа)
dP
(гПа)
Po
(мм)
O2
(г/м3)
Тmin Tmax R s Состояние
почвы
09 22.03.17 270 (З) 20000 м    10/3 1000 м средняя, верхняя 
[Sc|Ac As|Ci sp]
-4.5 -13.1 51 -4  1014.5  0.8  756  311    -2.7       
12 22.03.17 250 (З) 20000 м    10/3 600 м средняя 
[Sc|Ac As]
-6.2 -10.9 69 -8  1014.9  0.3  757  313           
15 22.03.17 260 (З) 10 км  слаб. ливневой снег  10/10 600 м кучево-дожд. 
[Cb cap]
-5.4 -8.2 81 -9  1014.6  -0.2  757  312           
18 22.03.17 250 (З) 10 км  слаб. ливневой снег  10/10 600 м кучево-дожд. 
[Cb cap]
-5.3 -6.9 88 -8  1014.4  -0.2  756  312           
21 22.03.17 280 (З) 10 км  слаб. ливневой снег  10/10 600 м кучево-дожд. 
[Cb cap]
-5 -6.4 90 -6  1015  0.5  757  311  -6.9    0.0  74  неравномерный
сухой снег
100% 
00 23.03.17 260 (З) 20000 м  слаб. ливневой снег  10/10 600 м кучево-дожд. 
[Cb cap]
-2.9 -5.7 81 -4  1015.7  0.8  757  309           
03 23.03.17 330 (СЗ) 2000 м  слаб. ливневой снег  10/10 600 м кучево-дожд. 
[Cb cap]
-1.1 -5.5 72 -4  1016.1  0.4  758  307           
06 23.03.17 010 (С) 20000 м  {ливн. осадки}  10/10 600 м кучево-дожд. 
[Cb cap]
-0.3 -6.5 63 -3  1016.3  0.2  758  306           
09 23.03.17 350 (С) 20000 м    9/9 600 м кучево-дожд. 
[Cb cap]
-1.3 -7.4 63 -3  1016.9  0.5  758  308    -0.1  0.3     
12 23.03.17 260 (З) 20000 м    10/10 600 м кучево-дожд. 
[Cb cap]
-4.1 -7.2 79 -4  1017.4  0.5  759  311           
15 23.03.17 270 (З) 20000 м    6/6 600 м кучево-дожд. 
[Cb cap]
-6.5 -8.7 84 -6  1017.6  0.2  759  314           
18 23.03.17 300 (СЗ) 20000 м    ясно 
-8.7 -12.1 76 -10  1017.3  -0.4  758  317           
21 23.03.17 300 (СЗ) 20000 м    8/8 600 м 
[Sc diur, vesp]
-9.5 -12.8 77 -11  1017.5  0.2  759  318  -10.5      74  неравномерный
сухой снег
100% 
00 24.03.17 220 (ЮЗ) 20000 м    9/0 средняя, верхняя 
[Ac As|Cc]
-5.8 -11.6 64 -5  1017.5  759  313           
03 24.03.17 250 (З) 20000 м    8/0 верхняя 
[Cs]
-1 -9.3 53 -4  1016.1  -1.3  758  307           
06 24.03.17 350 (С) 20000 м    8/3 1000 м верхняя 
[Sc|Cs]
+1.3 -11 39 -2  1015.9  0.1  758  305           
09 24.03.17 330 (СЗ) 20000 м    5/3 600 м верхняя 
[Sc|Ci sp]
-2.2 -11.8 48 -5  1016.6  0.6  758  309    +1.6       
12 24.03.17 340 (С) 20000 м    3/3 600 м 
[Sc]
-3.4 -12.4 50 -6  1017.3  0.7  759  311           
15 24.03.17 270 (З) 20000 м    4/4 600 м 
[Sc]
-6.8 -12.7 63 -8  1017.4  759  315           
18 24.03.17 270 (З) 10 км  слаб. снег  10/10 600 м 
[Sc]
-7.9 -11.9 73 -8  1017.1  -0.3  758  316           
21 24.03.17 250 (З) 10 км  слаб. снег  10/3 600 м средняя 
[Sc|As op]
-8.5 -11.2 81 -10  1017.9  0.8  759  317  -8.5    0.0  72  неравномерный
сухой снег
100% 
00 25.03.17 240 (ЮЗ) 20000 м  {снег}  10/6 1000 м средняя 
[Sc|As op]
-6.1 -10.4 72 -8  1018.3  0.8  759  314  -8.5         
03 25.03.17 240 (ЮЗ) 20000 м    6/6 1000 м 
[Sc]
-2.5 -9.5 59 -5  1017.3  -0.9  759  309           
06 25.03.17 240 (ЮЗ) 20000 м    8/3 600 м средняя 
[Sc|Ac trans]
-0.1 -9.1 51 -2  1016.8  -0.5  758  307           
09 25.03.17 090 (В) 20000 м    3/3 600 м 
[Sc]
-4.4 -9 70 -8  1017.8  759  312    +2.9  0.0     
Время (UTC), дата Ветер
(°,м/с) 
Видим.   Явления Облачность Т
(°С)
Тd
(°С)
f(%) Тe
(°С)
Pmin
(гПа)
dP
(гПа)
Po
(мм)
O2
(г/м3)
Тmin Tmax R s Состояние
почвы

Для получения пояснительной информации подведите курсор к названию столбца.

ПОГОДА Николаевск-
на-Амуре - архив

Всё, что Вы хотите узнать о погоде Николаевск-
на-Амуре - удобно и подробно!

Выберите нужную дату (начиная с 1 января 2015* года) и нажмите кнопку "Найти".
Будут отображены архивные сводки погоды по пункту Николаевск-
на-Амуре, начиная с указанной даты.


Отображать данные в формате CSV (для использования в таблицах Excel)


Внимание! Наш архив погоды предназначен исключительно для личного некоммерческого использования в познавательных целях. Если Вам необходимы официальные справки о состоянии погоды (для производственных, юридических, коммерческих и т.п. целей), обращайтесь в органы Росгидромета.

*Примечание: данная дата относится к архиву по метеостанциям СССР (Россия, СНГ, Балтия).
Архив по метеостанциям Зарубежной Европы и Азии (кроме Китая) хранится 10 дней, по другим регионам земного шара (Китай, Африка, Америка, Австралия, Океания) - 1 день.

Николаевск-
на-Амуре - район местоположения метеостанции


Название, широта, долгота, высота метеостанции:
Николаевск-на-Амуре 53.2°ш. 140.7°д. 68 м над ур. моря [Российская Федерация]

Дополнительная информация

В oтличие oт бoльшинства пoгoдных сайтoв мы публикуем пoдрoбную метеoинфoрмацию в детальнoм прoфессиoнальнoм фoрмате.

Характеристики температуры и влажнoсти вoздуха измеряются на высoте 2 м в тени вдали oт зданий и деревьев.
Скoрoсть ветра измеряется на высoте 10 м (на урoвне рoста челoвека скoрoсть ветра ниже в 1.5-2 раза). Если метеoстанция нахoдится в гoрoде или в лесу, тo скoрoсть ветра занижена на 2-4 м/с пo сравнению с oткрытым местoм. Скoрoсть ветра над акватoриями крупных рек и oзёр, а также на вершинах хoлмoв на 2-5 м/с выше, чем в oбычных услoвиях.
Атмoсфернoе давление в разных тoчках местнoсти мoжет значительнo oтличаться oт давления на метеoстанции, в зависимoсти oт услoвий рельефа (при пoдъёме на 10 м давление пoнижается примернo на 1 мм рт.ст.).